Home   Weather   Tübingen   Past weeks

Flag for Germany Past Weather in Tübingen, Baden-Württemberg, Germany — Yesterday and Last 2 Weeks

Now
28 °F

Sunny.


Feels Like: 28 °F
Forecast: 10 / 31 °F
Wind: 2 mph from North

Location: Stuttgart-Echterdingen

Current Time: Jan 20, 2017 at 1:07:03 pm

Latest Report: Jan 20, 2017 at 12:50 pm


Visibility: 10 mi

Pressure: 30.42 "Hg

Humidity: 59%

Dew Point: 16 °F

Location of TübingenLocation

Past Weather in Tübingen — Graph

°F

Tübingen Temperature Yesterday

Maximum temperature yesterday: 28 °F (at 1:50 pm)
Minimum temperature yesterday: 18 °F (at 3:50 am)
Average temperature yesterday: 22 °F

High & Low Weather Summary for the Past Weeks

 TemperatureHumidityPressure
High43 °F (Jan 13, 12:20 am)100% (Jan 6, 7:50 am)30.66 "Hg (Jan 6, 7:50 am)
Low7 °F (Jan 7, 2:50 am)59% (Jan 6, 1:20 pm)29.33 "Hg (Jan 13, 12:20 am)
Average28 °F82%30.19 "Hg
* Reported Jan 5 11:20 am — Jan 20 11:50 am, Tübingen, Weather by CustomWeather, © 2017

Note: Actual official high and low records may vary slightly from our data, if they occured in-between our weather recording intervals... More about our weather records

Advertising

Tübingen Weather History for the Previous 24 Hours

Scroll right to see more
 ConditionsComfort  
Time TempWeatherWind HumidityBarometerVisibility
11:50 am
Fri, Jan 20
25 °FSunny.2 mph69%30.45 "Hg10 mi
11:20 am25 °FSunny.2 mph69%30.45 "Hg10 mi
10:50 am21 °FSunny.1 mph74%30.48 "Hg10 mi
10:20 am19 °FSunny.2 mph79%30.48 "Hg10 mi
9:50 am18 °FSunny.2 mph79%30.48 "Hg10 mi
9:20 am16 °FSunny.1 mph86%30.45 "Hg10 mi
8:50 am16 °FSunny.1 mph86%30.45 "Hg10 mi
8:20 am14 °FSunny.2 mph85%30.45 "Hg10 mi
7:50 am16 °FClear.1 mph86%30.45 "Hg10 mi
7:20 am16 °FClear.1 mph86%30.45 "Hg10 mi
6:50 am18 °FClear.1 mph79%30.42 "Hg10 mi
6:20 am18 °FClear.1 mph79%30.45 "Hg10 mi
5:50 am18 °FPassing clouds.3 mph79%30.42 "HgN/A
5:20 am16 °FClear.1 mph86%30.45 "Hg10 mi
4:50 am16 °FClear.1 mph86%30.45 "Hg10 mi
4:20 am16 °FPassing clouds.5 mph86%30.45 "HgN/A
3:50 am18 °FClear.1 mph86%30.45 "Hg10 mi
3:20 am18 °FClear.1 mph86%30.45 "Hg10 mi
2:50 am18 °FClear.3 mph79%30.45 "Hg10 mi
2:20 am19 °FClear.2 mph79%30.45 "Hg10 mi
1:50 am19 °FClear.3 mph79%30.45 "Hg10 mi
1:20 am18 °FClear.1 mph86%30.45 "Hg10 mi
12:50 am18 °FClear.1 mph86%30.45 "Hg10 mi
12:20 am19 °FClear.5 mph79%30.45 "Hg10 mi
11:50 pm
Thu, Jan 19
21 °FClear.3 mph74%30.45 "Hg10 mi
11:20 pm19 °FClear.5 mph79%30.45 "Hg10 mi
10:50 pm21 °FClear.2 mph80%30.45 "Hg10 mi
10:20 pm23 °FClear.3 mph74%30.48 "Hg10 mi
9:50 pm23 °FClear.6 mph74%30.48 "Hg10 mi
9:20 pm23 °FClear.3 mph74%30.48 "Hg10 mi
8:50 pm23 °FClear.3 mph74%30.48 "Hg10 mi
8:20 pm23 °FClear.3 mph74%30.48 "Hg10 mi
7:50 pm25 °FClear.5 mph69%30.48 "Hg10 mi
7:20 pm25 °FClear.3 mph69%30.48 "Hg10 mi
6:50 pm25 °FClear.2 mph69%30.48 "Hg10 mi
6:20 pm25 °FClear.5 mph69%30.48 "Hg10 mi
5:50 pm25 °FClear.7 mph69%30.48 "Hg10 mi
5:20 pm27 °FClear.8 mph64%30.48 "Hg10 mi
4:50 pm27 °FSunny.8 mph69%30.45 "Hg10 mi
4:20 pm28 °FSunny.8 mph64%30.45 "Hg10 mi
3:50 pm28 °FSunny.8 mph64%30.45 "Hg10 mi
3:20 pm28 °FSunny.8 mph64%30.45 "Hg10 mi
2:50 pm28 °FPassing clouds.7 mph64%30.45 "HgN/A
2:20 pm28 °FPassing clouds.7 mph64%30.45 "HgN/A
1:50 pm28 °FPassing clouds.8 mph64%30.45 "HgN/A
1:20 pm27 °FPassing clouds.7 mph64%30.48 "HgN/A
Weather by CustomWeather, © 2017

See weather overviewHow to use our weather pages